BCS082 GMAD-EGLL

Flight info

Callsign BCS082
Flight time 3h 1m
Altitude 40000
Route MOGBA UH300 ESS UR724 OSLAD DCT GIMAL DCT XAPAS DCT PORTA DCT BARDI N873 DELOG DCT DEGEX DCT JSY/N0471F340 DCT REVTU UP87 ROXOG
Aircraft B77L/H-SDE1E2E3FGHIJ2J3J4J5M1RWXYZ/LB1D1

Departure

Time 2026-04-30 10:49
Airport Al Massira Airport (GMAD)

Arrival

Time 2026-04-30 13:51
Airport London Heathrow Airport (EGLL)
Time Latitude Longitude Altitude Speed Heading
2026-04-30 09:49 30.32706 -9.40976 240 ft 0 kts 181°
2026-04-30 10:35 30.32708 -9.40976 241 ft 1 kts 181°
2026-04-30 10:36 30.32723 -9.40975 241 ft 2 kts 181°
2026-04-30 10:36 30.32738 -9.40975 241 ft 2 kts 181°
2026-04-30 10:36 30.32753 -9.40975 241 ft 2 kts 181°
2026-04-30 10:36 30.32768 -9.40974 241 ft 2 kts 183°
2026-04-30 10:37 30.32783 -9.40972 241 ft 2 kts 195°
2026-04-30 10:37 30.32797 -9.40967 241 ft 2 kts 204°
2026-04-30 10:37 30.32810 -9.40959 241 ft 2 kts 214°
2026-04-30 10:37 30.32816 -9.40954 241 ft 0 kts 218°
2026-04-30 10:39 30.32803 -9.40969 240 ft 7 kts 235°
2026-04-30 10:40 30.32801 -9.41071 240 ft 17 kts 276°
2026-04-30 10:40 30.32811 -9.41208 239 ft 17 kts 275°
2026-04-30 10:40 30.32815 -9.41350 237 ft 17 kts 270°
2026-04-30 10:40 30.32807 -9.41483 235 ft 13 kts 244°
2026-04-30 10:41 30.32730 -9.41516 233 ft 13 kts 183°
2026-04-30 10:41 30.32636 -9.41520 233 ft 13 kts 181°
2026-04-30 10:41 30.32541 -9.41522 232 ft 13 kts 181°
2026-04-30 10:41 30.32465 -9.41570 229 ft 14 kts 262°
2026-04-30 10:42 30.32465 -9.41706 228 ft 20 kts 272°
2026-04-30 10:42 30.32469 -9.41894 225 ft 26 kts 271°
2026-04-30 10:42 30.32473 -9.42113 222 ft 27 kts 271°
2026-04-30 10:42 30.32477 -9.42337 220 ft 27 kts 272°
2026-04-30 10:43 30.32485 -9.42561 217 ft 27 kts 271°
2026-04-30 10:43 30.32487 -9.42748 217 ft 11 kts 268°
2026-04-30 10:43 30.32432 -9.42789 217 ft 10 kts 180°
2026-04-30 10:43 30.32418 -9.42789 217 ft 0 kts 180°
2026-04-30 10:48 30.32408 -9.42789 217 ft 5 kts 180°
2026-04-30 10:48 30.32345 -9.42789 217 ft 10 kts 180°
2026-04-30 10:48 30.32302 -9.42744 217 ft 10 kts 97°
2026-04-30 10:49 30.32296 -9.42549 217 ft 56 kts 92°
2026-04-30 10:49 30.32276 -9.41718 229 ft 147 kts 92°
2026-04-30 10:49 30.32238 -9.40352 757 ft 180 kts 94°
2026-04-30 10:49 30.32159 -9.38950 1879 ft 177 kts 97°
2026-04-30 10:50 30.31720 -9.37630 2509 ft 189 kts 124°
2026-04-30 10:50 30.30713 -9.36573 3054 ft 207 kts 152°
2026-04-30 10:50 30.29259 -9.36163 3622 ft 224 kts 184°
2026-04-30 10:50 30.27731 -9.36712 4219 ft 240 kts 216°
2026-04-30 10:51 30.26456 -9.38023 4856 ft 257 kts 225°
2026-04-30 10:51 30.25228 -9.39589 5575 ft 270 kts 239°
2026-04-30 10:51 30.24635 -9.41620 6476 ft 273 kts 265°
2026-04-30 10:51 30.24625 -9.43793 7440 ft 275 kts 272°
2026-04-30 10:52 30.24678 -9.46002 8332 ft 279 kts 271°
2026-04-30 10:52 30.24702 -9.48231 9193 ft 283 kts 271°
2026-04-30 10:52 30.24710 -9.50506 10062 ft 287 kts 270°
2026-04-30 10:52 30.24714 -9.52821 10763 ft 297 kts 270°
2026-04-30 10:53 30.24717 -9.55275 11307 ft 314 kts 270°
2026-04-30 10:53 30.24719 -9.57862 11926 ft 330 kts 270°
2026-04-30 10:53 30.24721 -9.60587 12581 ft 346 kts 270°
2026-04-30 10:53 30.24722 -9.63414 13311 ft 361 kts 271°
2026-04-30 10:54 30.24723 -9.66373 14060 ft 377 kts 270°
2026-04-30 10:54 30.24744 -9.69415 14938 ft 388 kts 273°
2026-04-30 10:54 30.25142 -9.72502 16115 ft 393 kts 284°
2026-04-30 10:54 30.26029 -9.75471 17308 ft 397 kts 294°
2026-04-30 10:55 30.27393 -9.78252 18357 ft 405 kts 304°
2026-04-30 10:55 30.29220 -9.80785 19345 ft 414 kts 313°
2026-04-30 10:55 30.31346 -9.82977 20396 ft 420 kts 321°
2026-04-30 10:55 30.33806 -9.84851 21440 ft 427 kts 329°
2026-04-30 10:56 30.36507 -9.86300 22406 ft 434 kts 337°
2026-04-30 10:56 30.39425 -9.87281 23353 ft 442 kts 346°
2026-04-30 10:56 30.42512 -9.87752 24146 ft 454 kts 354°
2026-04-30 10:56 30.45693 -9.87636 24880 ft 466 kts
2026-04-30 10:57 30.48896 -9.86911 25608 ft 477 kts 13°
2026-04-30 10:57 30.52072 -9.85557 26381 ft 488 kts 23°
2026-04-30 10:57 30.55051 -9.83632 27170 ft 497 kts 32°
2026-04-30 10:57 30.57994 -9.81509 27921 ft 503 kts 27°
2026-04-30 10:58 30.61166 -9.79751 28643 ft 510 kts 20°
2026-04-30 10:58 30.64505 -9.78363 29409 ft 516 kts 15°
2026-04-30 10:58 30.67944 -9.77261 30386 ft 516 kts 11°
2026-04-30 10:58 30.71439 -9.76362 31650 ft 510 kts
2026-04-30 10:59 30.74873 -9.75615 33085 ft 499 kts
2026-04-30 10:59 30.78245 -9.74983 34329 ft 490 kts
2026-04-30 10:59 30.81622 -9.74430 35118 ft 487 kts
2026-04-30 10:59 30.84985 -9.73949 35708 ft 488 kts
2026-04-30 11:00 30.88344 -9.73520 36340 ft 488 kts
2026-04-30 11:00 30.91749 -9.73122 37207 ft 485 kts
2026-04-30 11:00 30.95138 -9.72752 37967 ft 482 kts
2026-04-30 11:00 30.98544 -9.72399 38565 ft 481 kts
2026-04-30 11:01 31.01930 -9.72063 39128 ft 479 kts
2026-04-30 11:01 31.05374 -9.71738 39615 ft 478 kts
2026-04-30 11:01 31.08747 -9.71430 39934 ft 480 kts
2026-04-30 11:01 31.12102 -9.71130 40056 ft 484 kts
2026-04-30 11:02 31.18853 -9.70535 40063 ft 482 kts
2026-04-30 11:02 31.25563 -9.69952 40060 ft 483 kts
2026-04-30 11:03 31.32291 -9.69370 40063 ft 482 kts
2026-04-30 11:04 31.42321 -9.68069 40065 ft 487 kts
2026-04-30 11:04 31.48871 -9.66207 40067 ft 488 kts 11°
2026-04-30 11:05 31.55505 -9.64299 40053 ft 488 kts 11°
2026-04-30 11:05 31.62090 -9.62407 40058 ft 489 kts 10°
2026-04-30 11:06 31.68732 -9.60496 40056 ft 488 kts 10°
2026-04-30 11:06 31.75308 -9.58604 40060 ft 488 kts 10°
2026-04-30 11:07 31.81908 -9.56701 40058 ft 488 kts 10°
2026-04-30 11:07 31.88494 -9.54800 40062 ft 489 kts 11°
2026-04-30 11:08 31.95127 -9.52883 40059 ft 488 kts 11°
2026-04-30 11:08 32.01719 -9.50976 40065 ft 490 kts 11°
2026-04-30 11:09 32.08384 -9.49044 40061 ft 490 kts 11°
2026-04-30 11:09 32.15019 -9.47117 40059 ft 488 kts 11°
2026-04-30 11:10 32.21628 -9.45197 40063 ft 490 kts 11°
2026-04-30 11:10 32.28210 -9.43281 40069 ft 490 kts 11°
2026-04-30 11:11 32.34868 -9.41339 40066 ft 490 kts 11°
2026-04-30 11:11 32.41462 -9.39413 40070 ft 490 kts 11°
2026-04-30 11:12 32.48075 -9.37479 40066 ft 491 kts 11°
2026-04-30 11:12 32.54712 -9.35535 40071 ft 491 kts 11°
2026-04-30 11:13 32.61380 -9.33579 40070 ft 490 kts 11°
2026-04-30 11:13 32.67979 -9.31640 40068 ft 490 kts 11°
2026-04-30 11:14 32.74588 -9.29695 40066 ft 492 kts 11°
2026-04-30 11:14 32.81227 -9.27739 40075 ft 491 kts 11°
2026-04-30 11:15 32.87874 -9.25777 40078 ft 492 kts 11°
2026-04-30 11:15 32.94513 -9.23814 40077 ft 491 kts 11°
2026-04-30 11:16 33.01172 -9.21842 40082 ft 490 kts 12°
2026-04-30 11:16 33.07803 -9.19876 40082 ft 490 kts 12°
2026-04-30 11:17 33.14420 -9.17911 40080 ft 491 kts 12°
2026-04-30 11:17 33.21080 -9.15938 40079 ft 492 kts 11°
2026-04-30 11:18 33.27771 -9.13956 40080 ft 493 kts 12°
2026-04-30 11:18 33.37782 -9.10988 40084 ft 493 kts 12°
2026-04-30 11:19 33.44487 -9.08995 40086 ft 495 kts 12°
2026-04-30 11:19 33.51132 -9.07018 40086 ft 493 kts 12°
2026-04-30 11:20 33.57792 -9.05032 40090 ft 493 kts 12°
2026-04-30 11:20 33.64470 -9.03039 40091 ft 493 kts 12°
2026-04-30 11:21 33.71113 -9.01052 40092 ft 494 kts 12°
2026-04-30 11:21 33.77790 -8.99053 40092 ft 494 kts 12°
2026-04-30 11:22 33.84470 -8.97050 40095 ft 495 kts 12°
2026-04-30 11:22 33.91198 -8.95029 40091 ft 496 kts 12°
2026-04-30 11:23 33.97881 -8.93018 40096 ft 495 kts 12°
2026-04-30 11:24 34.07935 -8.89987 40104 ft 495 kts 12°
2026-04-30 11:24 34.14623 -8.87967 40091 ft 493 kts 12°
2026-04-30 11:25 34.24623 -8.84939 40094 ft 494 kts 12°
2026-04-30 11:26 34.37974 -8.80886 40096 ft 496 kts 12°
2026-04-30 11:26 34.44647 -8.78855 40096 ft 496 kts 12°
2026-04-30 11:27 34.51319 -8.76812 40099 ft 496 kts 12°
2026-04-30 11:27 34.58031 -8.74752 40094 ft 495 kts 12°
2026-04-30 11:28 34.68025 -8.71678 40095 ft 494 kts 12°
2026-04-30 11:29 34.74721 -8.69614 40097 ft 495 kts 12°
2026-04-30 11:29 34.84757 -8.66515 40096 ft 494 kts 12°
2026-04-30 11:30 34.94788 -8.63410 40100 ft 495 kts 13°
2026-04-30 11:31 35.01408 -8.61357 40100 ft 495 kts 12°
2026-04-30 11:31 35.08100 -8.59277 40100 ft 496 kts 12°
2026-04-30 11:32 35.14787 -8.57196 40096 ft 495 kts 12°
2026-04-30 11:32 35.21415 -8.55129 40095 ft 494 kts 12°
2026-04-30 11:33 35.31423 -8.52002 40096 ft 495 kts 12°
2026-04-30 11:33 35.38091 -8.49914 40097 ft 495 kts 13°
2026-04-30 11:34 35.44788 -8.47813 40096 ft 495 kts 13°
2026-04-30 11:34 35.51431 -8.45726 40097 ft 496 kts 13°
2026-04-30 11:35 35.58133 -8.43616 40098 ft 496 kts 13°
2026-04-30 11:35 35.64815 -8.41510 40098 ft 497 kts 13°
2026-04-30 11:36 35.71532 -8.39388 40099 ft 496 kts 13°
2026-04-30 11:36 35.78203 -8.37277 40099 ft 496 kts 13°
2026-04-30 11:37 35.84880 -8.35161 40100 ft 496 kts 13°
2026-04-30 11:37 35.91597 -8.33029 40096 ft 496 kts 13°
2026-04-30 11:38 35.98302 -8.30874 40094 ft 498 kts 15°
2026-04-30 11:38 36.04933 -8.28571 40104 ft 497 kts 12°
2026-04-30 11:39 36.11688 -8.26628 40101 ft 497 kts 12°
2026-04-30 11:39 36.18462 -8.24682 40092 ft 497 kts 12°
2026-04-30 11:40 36.25169 -8.22751 40094 ft 496 kts 12°
2026-04-30 11:40 36.31897 -8.20811 40096 ft 497 kts 12°
2026-04-30 11:41 36.38673 -8.18854 40096 ft 497 kts 12°
2026-04-30 11:41 36.45368 -8.16917 40093 ft 496 kts 12°
2026-04-30 11:42 36.52094 -8.14968 40095 ft 496 kts 12°
2026-04-30 11:42 36.58824 -8.13014 40097 ft 496 kts 12°
2026-04-30 11:43 36.65529 -8.11063 40097 ft 496 kts 12°
2026-04-30 11:43 36.72241 -8.09108 40100 ft 494 kts 12°
2026-04-30 11:44 36.78920 -8.07158 40101 ft 495 kts 12°
2026-04-30 11:44 36.85621 -8.05198 40101 ft 494 kts 12°
2026-04-30 11:45 36.92291 -8.03244 40103 ft 494 kts 12°
2026-04-30 11:45 36.98963 -8.01285 40106 ft 493 kts 12°
2026-04-30 11:46 37.05669 -7.99313 40106 ft 493 kts 12°
2026-04-30 11:46 37.12343 -7.97348 40105 ft 494 kts 12°
2026-04-30 11:47 37.19009 -7.95381 40105 ft 494 kts 12°
2026-04-30 11:47 37.25675 -7.93410 40098 ft 494 kts 12°
2026-04-30 11:48 37.32388 -7.91422 40102 ft 493 kts 12°
2026-04-30 11:48 37.39040 -7.89449 40097 ft 494 kts 12°
2026-04-30 11:49 37.45729 -7.87460 40099 ft 493 kts 12°
2026-04-30 11:49 37.52421 -7.85470 40096 ft 493 kts 12°
2026-04-30 11:50 37.59071 -7.83486 40093 ft 493 kts 12°
2026-04-30 11:50 37.65753 -7.81489 40098 ft 494 kts 13°
2026-04-30 11:51 37.72438 -7.79487 40095 ft 494 kts 13°
2026-04-30 11:51 37.79147 -7.77475 40089 ft 495 kts 13°
2026-04-30 11:52 37.85854 -7.75460 40092 ft 495 kts 13°
2026-04-30 11:52 37.92529 -7.73450 40080 ft 494 kts 13°
2026-04-30 11:53 37.99238 -7.71425 40095 ft 493 kts 13°
2026-04-30 11:53 38.05913 -7.69408 40090 ft 494 kts 13°
2026-04-30 11:54 38.12573 -7.67391 40088 ft 493 kts 13°
2026-04-30 11:54 38.19251 -7.65364 40087 ft 493 kts 13°
2026-04-30 11:55 38.25931 -7.63334 40088 ft 494 kts 13°
2026-04-30 11:55 38.32620 -7.61296 40088 ft 495 kts 13°
2026-04-30 11:56 38.39326 -7.59250 40084 ft 495 kts 13°
2026-04-30 11:56 38.46010 -7.57207 40085 ft 496 kts 13°
2026-04-30 11:57 38.52716 -7.55152 40092 ft 496 kts 13°
2026-04-30 11:57 38.59415 -7.53097 40089 ft 495 kts 13°
2026-04-30 11:58 38.66106 -7.51039 40092 ft 495 kts 12°
2026-04-30 11:58 38.72780 -7.48985 40094 ft 495 kts 12°
2026-04-30 11:59 38.79481 -7.46916 40093 ft 495 kts 13°
2026-04-30 11:59 38.86166 -7.44849 40093 ft 496 kts 12°
2026-04-30 12:00 38.92876 -7.42769 40098 ft 497 kts 12°
2026-04-30 12:00 38.99624 -7.40674 40099 ft 497 kts 12°
2026-04-30 12:01 39.06312 -7.38593 40106 ft 497 kts 12°
2026-04-30 12:01 39.13083 -7.36482 40093 ft 497 kts 12°
2026-04-30 12:02 39.19781 -7.34390 40093 ft 497 kts 13°
2026-04-30 12:02 39.26504 -7.32287 40092 ft 497 kts 13°
2026-04-30 12:03 39.36197 -7.27684 40097 ft 498 kts 31°
2026-04-30 12:04 39.42168 -7.23062 40104 ft 498 kts 31°
2026-04-30 12:04 39.48072 -7.18442 40090 ft 498 kts 31°
2026-04-30 12:05 39.54011 -7.13782 40091 ft 498 kts 31°
2026-04-30 12:05 39.59920 -7.09133 40097 ft 499 kts 31°
2026-04-30 12:06 39.65827 -7.04476 40098 ft 498 kts 31°
2026-04-30 12:06 39.71740 -6.99803 40104 ft 499 kts 31°
2026-04-30 12:07 39.77646 -6.95127 40096 ft 498 kts 31°
2026-04-30 12:07 39.83613 -6.90392 40098 ft 499 kts 31°
2026-04-30 12:08 39.89512 -6.85702 40102 ft 497 kts 31°
2026-04-30 12:08 39.95401 -6.81009 40098 ft 497 kts 31°
2026-04-30 12:09 40.01262 -6.76329 40094 ft 496 kts 31°
2026-04-30 12:09 40.07169 -6.71604 40093 ft 497 kts 31°
2026-04-30 12:10 40.13077 -6.66868 40085 ft 497 kts 31°
2026-04-30 12:10 40.18948 -6.62151 40087 ft 497 kts 31°
2026-04-30 12:11 40.24829 -6.57417 40090 ft 498 kts 31°
2026-04-30 12:11 40.30750 -6.52641 40087 ft 499 kts 31°
2026-04-30 12:12 40.36705 -6.47827 40091 ft 499 kts 31°
2026-04-30 12:12 40.42591 -6.43060 40097 ft 499 kts 31°
2026-04-30 12:13 40.48529 -6.38239 40092 ft 499 kts 31°
2026-04-30 12:13 40.54459 -6.33415 40090 ft 499 kts 31°
2026-04-30 12:14 40.60365 -6.28680 40083 ft 498 kts 27°
2026-04-30 12:14 40.66510 -6.24488 40095 ft 498 kts 26°
2026-04-30 12:15 40.72686 -6.20277 40089 ft 498 kts 26°
2026-04-30 12:15 40.78814 -6.16063 40091 ft 499 kts 26°
2026-04-30 12:16 40.84971 -6.11806 40099 ft 499 kts 26°
2026-04-30 12:16 40.91125 -6.07533 40099 ft 500 kts 26°
2026-04-30 12:17 41.00348 -6.01107 40101 ft 499 kts 26°
2026-04-30 12:17 41.06494 -5.96809 40100 ft 497 kts 26°
2026-04-30 12:18 41.12620 -5.92516 40093 ft 497 kts 26°
2026-04-30 12:18 41.18715 -5.88236 40089 ft 498 kts 26°
2026-04-30 12:19 41.24800 -5.83953 40079 ft 497 kts 26°
2026-04-30 12:19 41.30924 -5.79633 40082 ft 498 kts 26°
2026-04-30 12:20 41.37019 -5.75324 40082 ft 499 kts 26°
2026-04-30 12:20 41.43147 -5.70983 40078 ft 498 kts 26°
2026-04-30 12:21 41.49280 -5.66629 40075 ft 498 kts 26°
2026-04-30 12:21 41.55375 -5.62407 40073 ft 495 kts 21°
2026-04-30 12:22 41.61734 -5.58899 40077 ft 493 kts 19°
2026-04-30 12:22 41.68105 -5.55383 40079 ft 494 kts 19°
2026-04-30 12:23 41.74422 -5.51853 40081 ft 493 kts 19°
2026-04-30 12:23 41.80763 -5.48282 40077 ft 493 kts 19°
2026-04-30 12:24 41.87060 -5.44718 40079 ft 493 kts 19°
2026-04-30 12:24 41.93372 -5.41133 40080 ft 493 kts 19°
2026-04-30 12:25 41.99724 -5.37514 40084 ft 493 kts 19°
2026-04-30 12:25 42.06008 -5.33924 40080 ft 492 kts 20°
2026-04-30 12:26 42.12318 -5.30311 40076 ft 490 kts 20°
2026-04-30 12:26 42.18623 -5.26693 40082 ft 490 kts 20°
2026-04-30 12:27 42.24915 -5.23074 40081 ft 490 kts 20°
2026-04-30 12:27 42.31224 -5.19437 40091 ft 491 kts 20°
2026-04-30 12:28 42.37492 -5.15816 40089 ft 491 kts 20°
2026-04-30 12:28 42.43755 -5.12190 40098 ft 489 kts 20°
2026-04-30 12:29 42.50068 -5.08526 40096 ft 491 kts 20°
2026-04-30 12:29 42.56321 -5.04889 40103 ft 488 kts 20°
2026-04-30 12:30 42.62570 -5.01247 40105 ft 487 kts 20°
2026-04-30 12:30 42.68766 -4.97629 40104 ft 488 kts 20°
2026-04-30 12:31 42.75010 -4.93973 40107 ft 488 kts 20°
2026-04-30 12:31 42.81242 -4.90316 40115 ft 487 kts 20°
2026-04-30 12:32 42.87447 -4.86666 40114 ft 487 kts 20°
2026-04-30 12:32 42.93679 -4.82992 40108 ft 486 kts 19°
2026-04-30 12:33 42.99902 -4.79317 40099 ft 486 kts 19°
2026-04-30 12:33 43.06092 -4.75652 40111 ft 487 kts 19°
2026-04-30 12:34 43.12286 -4.71979 40097 ft 487 kts 20°
2026-04-30 12:34 43.18498 -4.68285 40105 ft 486 kts 20°
2026-04-30 12:35 43.24695 -4.64592 40100 ft 486 kts 20°
2026-04-30 12:35 43.30900 -4.60885 40086 ft 485 kts 20°
2026-04-30 12:36 43.37105 -4.57170 40086 ft 485 kts 20°
2026-04-30 12:36 43.43285 -4.53463 40064 ft 484 kts 20°
2026-04-30 12:37 43.49422 -4.49773 40063 ft 486 kts 20°
2026-04-30 12:37 43.55625 -4.46035 40066 ft 485 kts 20°
2026-04-30 12:38 43.61789 -4.42311 40070 ft 485 kts 20°
2026-04-30 12:38 43.67966 -4.38572 40066 ft 485 kts 20°
2026-04-30 12:39 43.74127 -4.34834 40062 ft 485 kts 21°
2026-04-30 12:39 43.80347 -4.31051 40055 ft 485 kts 21°
2026-04-30 12:40 43.86509 -4.27295 40073 ft 484 kts 21°
2026-04-30 12:40 43.92650 -4.23544 40050 ft 485 kts 21°
2026-04-30 12:41 43.98787 -4.19787 40069 ft 485 kts 21°
2026-04-30 12:41 44.04968 -4.15993 40076 ft 484 kts 21°
2026-04-30 12:42 44.11103 -4.12219 40067 ft 483 kts 21°
2026-04-30 12:42 44.17260 -4.08424 40078 ft 483 kts 21°
2026-04-30 12:43 44.23381 -4.04642 40077 ft 482 kts 21°
2026-04-30 12:43 44.29522 -4.00839 40074 ft 483 kts 21°
2026-04-30 12:44 44.35860 -3.98057 40069 ft 477 kts
2026-04-30 12:44 44.42395 -3.96547 40078 ft 476 kts
2026-04-30 12:45 44.48904 -3.95064 40078 ft 475 kts
2026-04-30 12:45 44.55419 -3.93571 40077 ft 474 kts
2026-04-30 12:46 44.61916 -3.92076 40076 ft 473 kts
2026-04-30 12:46 44.68394 -3.90580 40070 ft 474 kts
2026-04-30 12:47 44.74918 -3.89069 40071 ft 475 kts
2026-04-30 12:47 44.81440 -3.87555 40080 ft 474 kts
2026-04-30 12:48 44.87911 -3.86049 40070 ft 474 kts
2026-04-30 12:48 44.94403 -3.84534 40081 ft 474 kts
2026-04-30 12:49 45.00903 -3.83014 40065 ft 475 kts
2026-04-30 12:49 45.07404 -3.81490 40068 ft 474 kts
2026-04-30 12:50 45.13858 -3.79974 40061 ft 473 kts
2026-04-30 12:50 45.20378 -3.78438 40061 ft 475 kts
2026-04-30 12:51 45.26857 -3.76908 40079 ft 475 kts
2026-04-30 12:51 45.33380 -3.75365 40055 ft 475 kts
2026-04-30 12:52 45.39758 -3.73853 40056 ft 476 kts
2026-04-30 12:52 45.46309 -3.72296 40059 ft 476 kts
2026-04-30 12:53 45.52851 -3.70737 40056 ft 476 kts
2026-04-30 12:53 45.59361 -3.69183 40054 ft 476 kts
2026-04-30 12:54 45.65873 -3.67624 40060 ft 476 kts
2026-04-30 12:54 45.72417 -3.66054 40055 ft 476 kts
2026-04-30 12:55 45.78964 -3.64479 40057 ft 476 kts
2026-04-30 12:55 45.85483 -3.62907 40057 ft 477 kts
2026-04-30 12:56 45.91974 -3.61339 40056 ft 477 kts
2026-04-30 12:56 45.98508 -3.59756 40057 ft 477 kts
2026-04-30 12:57 46.05081 -3.58160 40054 ft 477 kts
2026-04-30 12:57 46.11585 -3.56577 40054 ft 476 kts
2026-04-30 12:58 46.18119 -3.54983 40051 ft 476 kts
2026-04-30 12:58 46.24649 -3.53386 40050 ft 476 kts
2026-04-30 12:59 46.31170 -3.51787 40046 ft 477 kts
2026-04-30 12:59 46.37707 -3.50181 40051 ft 478 kts
2026-04-30 13:00 46.44249 -3.48569 40042 ft 478 kts
2026-04-30 13:00 46.50786 -3.46955 40049 ft 478 kts
2026-04-30 13:01 46.57346 -3.45331 40045 ft 478 kts
2026-04-30 13:01 46.63907 -3.43703 40045 ft 479 kts
2026-04-30 13:02 46.70464 -3.42071 40039 ft 479 kts
2026-04-30 13:02 46.77032 -3.40433 40045 ft 479 kts
2026-04-30 13:03 46.83567 -3.38801 40043 ft 479 kts
2026-04-30 13:03 46.90130 -3.37155 40038 ft 479 kts
2026-04-30 13:04 46.96694 -3.35506 40031 ft 480 kts
2026-04-30 13:04 47.03282 -3.33846 40038 ft 480 kts 10°
2026-04-30 13:05 47.09804 -3.32199 40037 ft 480 kts 10°
2026-04-30 13:06 47.19751 -3.29679 40031 ft 481 kts
2026-04-30 13:06 47.26297 -3.28016 40034 ft 480 kts
2026-04-30 13:07 47.32879 -3.26340 40032 ft 480 kts 10°
2026-04-30 13:07 47.39461 -3.24659 40033 ft 480 kts 10°
2026-04-30 13:08 47.46007 -3.22983 40030 ft 480 kts 10°
2026-04-30 13:08 47.52604 -3.21290 40033 ft 480 kts 10°
2026-04-30 13:09 47.59201 -3.19592 40033 ft 481 kts 10°
2026-04-30 13:09 47.65792 -3.17891 40028 ft 482 kts 10°
2026-04-30 13:10 47.72342 -3.16135 40017 ft 480 kts 14°
2026-04-30 13:10 47.78579 -3.12576 40023 ft 480 kts 26°
2026-04-30 13:11 47.84559 -3.08236 40023 ft 480 kts 26°
2026-04-30 13:11 47.90522 -3.03879 40020 ft 479 kts 26°
2026-04-30 13:12 47.96502 -2.99495 40021 ft 480 kts 27°
2026-04-30 13:12 48.02466 -2.95110 40027 ft 479 kts 27°
2026-04-30 13:13 48.11432 -2.88494 40021 ft 479 kts 27°
2026-04-30 13:14 48.20377 -2.81867 40023 ft 480 kts 27°
2026-04-30 13:14 48.29347 -2.75196 40031 ft 478 kts 27°
2026-04-30 13:15 48.38287 -2.68520 40031 ft 480 kts 27°
2026-04-30 13:16 48.44236 -2.64064 40033 ft 478 kts 27°
2026-04-30 13:16 48.50092 -2.59664 40030 ft 479 kts 27°
2026-04-30 13:17 48.59001 -2.52951 40031 ft 478 kts 27°
2026-04-30 13:18 48.67880 -2.46234 40032 ft 478 kts 27°
2026-04-30 13:18 48.76749 -2.39496 40036 ft 478 kts 27°
2026-04-30 13:19 48.82656 -2.34995 40037 ft 476 kts 27°
2026-04-30 13:19 48.88586 -2.30463 40046 ft 475 kts 27°
2026-04-30 13:20 48.94475 -2.25950 40051 ft 475 kts 27°
2026-04-30 13:20 49.00373 -2.21419 40057 ft 475 kts 27°
2026-04-30 13:21 49.06243 -2.16898 40061 ft 477 kts 27°
2026-04-30 13:22 49.15125 -2.10033 40065 ft 476 kts 27°
2026-04-30 13:22 49.23935 -2.03152 40068 ft 474 kts 29°
2026-04-30 13:23 49.32600 -1.95771 40067 ft 473 kts 30°
2026-04-30 13:24 49.44096 -1.85955 40076 ft 474 kts 30°
2026-04-30 13:25 49.55589 -1.76119 40081 ft 474 kts 28°
2026-04-30 13:26 49.65081 -1.72080 40089 ft 477 kts
2026-04-30 13:26 49.71695 -1.71516 40092 ft 478 kts
2026-04-30 13:28 49.88223 -1.70147 38249 ft 479 kts
2026-04-30 13:28 49.94855 -1.69586 36715 ft 480 kts
2026-04-30 13:28 49.98163 -1.69261 36122 ft 478 kts
2026-04-30 13:29 50.04615 -1.66948 34738 ft 479 kts 19°
2026-04-30 13:29 50.11002 -1.63848 32959 ft 484 kts 19°
2026-04-30 13:30 50.20679 -1.59136 30521 ft 482 kts 19°
2026-04-30 13:31 50.26930 -1.56088 29528 ft 476 kts 20°
2026-04-30 13:31 50.36539 -1.51384 27766 ft 478 kts 20°
2026-04-30 13:32 50.42769 -1.48327 26606 ft 467 kts 21°
2026-04-30 13:32 50.48937 -1.45291 25428 ft 462 kts 21°
2026-04-30 13:33 50.54892 -1.41896 24242 ft 449 kts 31°
2026-04-30 13:33 50.60315 -1.37305 23067 ft 440 kts 33°
2026-04-30 13:34 50.62964 -1.35027 22478 ft 437 kts 33°
2026-04-30 13:34 50.70866 -1.28218 20691 ft 425 kts 33°
2026-04-30 13:35 50.73429 -1.26004 20097 ft 422 kts 33°
2026-04-30 13:35 50.78471 -1.21474 18898 ft 413 kts 38°
2026-04-30 13:36 50.83225 -1.16489 17710 ft 407 kts 38°
2026-04-30 13:36 50.85546 -1.14062 17124 ft 404 kts 38°
2026-04-30 13:36 50.90182 -1.09228 15922 ft 395 kts 37°
2026-04-30 13:37 50.92453 -1.06864 15308 ft 392 kts 37°
2026-04-30 13:37 50.96960 -1.02172 14094 ft 384 kts 37°
2026-04-30 13:38 51.01134 -0.97261 12990 ft 370 kts 49°
2026-04-30 13:38 51.02868 -0.94276 12680 ft 364 kts 52°
2026-04-30 13:38 51.06142 -0.88475 12042 ft 343 kts 52°
2026-04-30 13:39 51.09228 -0.82977 11480 ft 324 kts 52°
2026-04-30 13:39 51.12137 -0.77782 10943 ft 308 kts 52°
2026-04-30 13:40 51.13539 -0.75279 10677 ft 301 kts 52°
2026-04-30 13:40 51.14914 -0.72831 10415 ft 294 kts 52°
2026-04-30 13:40 51.16256 -0.70420 10140 ft 289 kts 53°
2026-04-30 13:40 51.17585 -0.68027 9775 ft 287 kts 53°
2026-04-30 13:41 51.18892 -0.65665 9477 ft 283 kts 53°
2026-04-30 13:41 51.20192 -0.63327 9097 ft 283 kts 53°
2026-04-30 13:41 51.21500 -0.60975 8740 ft 281 kts 53°
2026-04-30 13:41 51.22785 -0.58664 8401 ft 280 kts 53°
2026-04-30 13:42 51.24073 -0.56343 8050 ft 278 kts 53°
2026-04-30 13:42 51.25331 -0.54073 7642 ft 267 kts 53°
2026-04-30 13:42 51.28330 -0.50974 7198 ft 268 kts
2026-04-30 13:43 51.30131 -0.51356 7178 ft 263 kts 339°
2026-04-30 13:43 51.31647 -0.53062 7183 ft 268 kts 309°
2026-04-30 13:43 51.32590 -0.55589 7193 ft 267 kts 291°
2026-04-30 13:43 51.33250 -0.58350 7197 ft 267 kts 286°
2026-04-30 13:44 51.33837 -0.61165 7196 ft 267 kts 285°
2026-04-30 13:44 51.34392 -0.63968 7199 ft 266 kts 285°
2026-04-30 13:44 51.34966 -0.66815 7117 ft 270 kts 285°
2026-04-30 13:44 51.35551 -0.69671 6793 ft 272 kts 285°
2026-04-30 13:45 51.36707 -0.75417 6190 ft 271 kts 285°
2026-04-30 13:45 51.37558 -0.78149 5726 ft 284 kts 310°
2026-04-30 13:45 51.39125 -0.80035 5002 ft 296 kts 341°
2026-04-30 13:46 51.41163 -0.80485 4066 ft 299 kts 13°
2026-04-30 13:46 51.43124 -0.79731 3560 ft 284 kts 18°
2026-04-30 13:46 51.44931 -0.78837 3352 ft 256 kts 35°
2026-04-30 13:46 51.46249 -0.77150 3251 ft 236 kts 57°
2026-04-30 13:47 51.47051 -0.74954 3147 ft 223 kts 76°
2026-04-30 13:47 51.47320 -0.72569 3029 ft 214 kts 94°
2026-04-30 13:47 51.46949 -0.70324 2976 ft 204 kts 114°
2026-04-30 13:47 51.46464 -0.68288 2674 ft 191 kts 103°
2026-04-30 13:48 51.46428 -0.66247 2413 ft 181 kts 90°
2026-04-30 13:48 51.46478 -0.64291 2154 ft 169 kts 92°
2026-04-30 13:48 51.46476 -0.62489 1930 ft 159 kts 93°
2026-04-30 13:48 51.46417 -0.60746 1621 ft 154 kts 96°
2026-04-30 13:49 51.46388 -0.59098 1410 ft 142 kts 90°
2026-04-30 13:49 51.46429 -0.57582 1204 ft 132 kts 90°
2026-04-30 13:49 51.46434 -0.56168 1090 ft 127 kts 90°
2026-04-30 13:49 51.46446 -0.54741 939 ft 127 kts 89°
2026-04-30 13:50 51.46470 -0.53346 755 ft 126 kts 91°
2026-04-30 13:50 51.46468 -0.50478 369 ft 128 kts 89°
2026-04-30 13:50 51.46475 -0.49055 214 ft 129 kts 90°
2026-04-30 13:51 51.46480 -0.47606 100 ft 122 kts 89°
2026-04-30 13:51 51.46484 -0.46469 99 ft 81 kts 90°
2026-04-30 13:51 51.46486 -0.45832 99 ft 31 kts 90°
2026-04-30 13:51 51.46438 -0.45512 99 ft 28 kts 113°
2026-04-30 13:52 51.46341 -0.45404 99 ft 14 kts 201°
2026-04-30 13:52 51.46319 -0.45558 99 ft 15 kts 279°
2026-04-30 13:52 51.46323 -0.45736 99 ft 16 kts 269°
2026-04-30 13:52 51.46322 -0.45921 99 ft 16 kts 269°
2026-04-30 13:53 51.46322 -0.46114 99 ft 17 kts 269°
2026-04-30 13:53 51.46321 -0.46309 99 ft 16 kts 269°
2026-04-30 13:53 51.46296 -0.46380 99 ft 8 kts 194°
2026-04-30 13:53 51.46234 -0.46384 99 ft 6 kts 179°
2026-04-30 13:54 51.46225 -0.46384 99 ft 0 kts 179°